vendredi 02 février 2018

Le classement original se trouve sur : http://ultratiming.be
 
LE TRAIL DE LA CHANDELEUR - MALONNE
DISTANCE : 16.91 km
vendredi 02 février 2018
 
Place dos NOM Catégorie Pl/cat temps temps/km Vitesse
1 89 GOUBAU JOHAN SEH 1 1:18:02 04:37 13.00
2 55 DENEFFE GUILLAUME SEH 2 1:19:23 04:42 12.78
3 179 SEPULCHRE GUILLAUME SEH 3 1:20:23 04:45 12.62
4 226 VERSAILLES ALBAN SEH 4 1:24:18 04:59 12.03
5 194 VAN DER VEKEN GREG SEH 5 1:24:31 05:00 12.00
6 190 TRIAILLE THIBAULT CAH 1 1:24:51 05:01 11.96
7 115 LAMBOTTE WILLIAM JUH 1 1:30:04 05:20 11.26
8 225 MATTHYS ALEXIS SEH 6 1:30:06 05:20 11.26
9 227 DEGEMBE WILLIAM SEH 7 1:30:43 05:22 11.18
10 252 MAHIA SEBASTIEN SEH 8 1:32:01 05:27 11.02
11 169 ROMNÉE AMBROISE SEH 9 1:33:18 05:31 10.87
12 49 DELAHAYE BENOIT SEH 10 1:34:24 05:35 10.75
13 50 DELAHAYE SIMON SEH 11 1:34:25 05:35 10.74
14 238 BASSO MARTIN SEH 12 1:36:21 05:42 10.53
15 19 BOURNONVILLE RUDDY V1H 1 1:37:35 05:46 10.40
16 148 BUSSCHAERT HAROLD SEH 13 1:37:36 05:46 10.39
17 80 GAZ CHRISTOPHE V1H 2 1:37:46 05:47 10.38
18 151 PEPIN CEDRIC SEH 14 1:38:20 05:49 10.32
19 95 HANSEN NICOLAS SEH 15 1:38:30 05:50 10.30
20 128 MANSSENS CHRISTOPHE SEH 16 1:39:04 05:52 10.24
21 220 LINDEKENS ANDRE V1H 3 1:39:16 05:52 10.22
22 154 PINCHART MICHAEL V1H 4 1:39:24 05:53 10.21
23 217 DENIS MARTIN SEH 17 1:40:11 05:56 10.13
24 74 FINNÉ CLÉMENT SEH 18 1:42:13 06:03 9.92
25 230 HANQUET AXEL SEH 19 1:42:22 06:03 9.91
26 214 TEMMERMAN MAXIME SEH 20 1:42:57 06:05 9.85
27 139 MICHAEL CHARLOT V1H 5 1:43:12 06:06 9.83
28 248 THOMAS DAMIEN V1H 6 1:43:34 06:08 9.79
29 77 FRASELLE JÉRÉMIE SEH 21 1:43:43 06:08 9.78
30 207 WILMOTTE DAMIEN SEH 22 1:45:04 06:13 9.66
31 141 MICHEL SÉBASTIEN SEH 23 1:45:06 06:13 9.65
32 84 GERARD PIERRE SEH 24 1:45:30 06:14 9.62
33 228 THOMAS BENJAMIN SEH 25 1:45:56 06:16 9.58
34 145 MOREELS GUILLAUME SEH 26 1:45:57 06:16 9.57
35 10 BERBEN REMI SEH 27 1:46:23 06:18 9.54
36 12 BOMBAERTS VINCENT SEH 28 1:46:57 06:20 9.49
37 132 MARTIN ANTHONY SEH 29 1:47:23 06:21 9.45
38 166 RENARD SIMON JUH 2 1:47:32 06:22 9.43
39 48 DEJEMEPPE JULIEN SEH 30 1:47:36 06:22 9.43
40 120 LEFEBVRE BENOIT V1H 7 1:47:43 06:22 9.42
41 206 WERY SIMON SEH 31 1:47:45 06:22 9.41
42 52 DELVAUX AXEL V1H 8 1:48:19 06:24 9.37
43 56 DEPRAETERE MICHAEL V1H 9 1:48:29 06:25 9.35
44 159 PONCELET ANTOINE SEH 32 1:49:12 06:28 9.29
45 240 BLONDEL JEAN-BAPTISTE SEH 33 1:49:20 06:28 9.28
46 198 VANDELOISE FLORENT SEH 34 1:49:27 06:28 9.27
47 63 GENDARME DANNY SEH 35 1:49:31 06:29 9.26
48 116 LANGHENDRIES BENJAMIN SEH 36 1:49:32 06:29 9.26
49 156 PIRSON ADRIEN SEH 37 1:49:34 06:29 9.26
50 112 LAMBERT GERMAIN SEH 38 1:49:40 06:29 9.25
51 102 JAUMAIN BERNARD V1H 10 1:50:39 06:33 9.17
52 117 LAURENT HUGO CAH 2 1:51:22 06:35 9.11
53 83 GERARD DIDIER V1H 11 1:51:45 06:37 9.08
54 241 LENAERTS MATHIEU SEH 39 1:51:53 06:37 9.07
55 69 EVRARD FRANCOISE SEF 1 1:52:37 06:40 9.01
56 4 BERTRAND THIBAUT SEH 40 1:52:37 06:40 9.01
57 60 DESMIT BENJAMIN SEH 41 1:52:46 06:40 9.00
58 79 GALVEZ GAUTHIER SEH 42 1:52:48 06:40 8.99
59 47 DEDOCQ SÉBASTIEN SEH 43 1:53:10 06:42 8.96
60 106 KAISER SIMON SEH 44 1:53:13 06:42 8.96
61 70 EWBANK GEOFFREY SEH 45 1:53:19 06:42 8.95
62 176 SCHILTZ FRÉDÉRIC V1H 12 1:53:27 06:43 8.94
63 239 PATRIS LOUIS SEH 46 1:53:29 06:43 8.94
64 11 BERTUZZI FRANÇOIS SEH 47 1:53:32 06:43 8.94
65 119 LECOMTE MICHEL V2H 1 1:53:49 06:44 8.91
66 32 COLOT BJORN SEH 48 1:54:00 06:45 8.90
67 197 VANDAELE DAVID SEH 49 1:54:17 06:46 8.88
68 216 DESSOY HAROLD V1H 13 1:54:27 06:46 8.86
69 92 GRIGIS LOIC SEH 50 1:54:27 06:46 8.86
70 222 BERTRAND THOMAS SEH 51 1:54:35 06:47 8.85
71 114 LAMBILLON QUENTIN SEH 52 1:54:37 06:47 8.85
72 236 VANSNICK FABIAN SEH 53 1:54:49 06:47 8.84
73 161 POUCET OLIVIER V1H 14 1:54:49 06:47 8.84
74 134 MATAGNE PIERRE-YVES SEH 54 1:55:32 06:50 8.78
75 28 CHRISTIAENS ALEXANDRE SEH 55 1:55:57 06:51 8.75
76 88 GONZE JULIEN SEH 56 1:57:20 06:56 8.65
77 244 DETHIER FRANCOIS SEH 57 1:57:52 06:58 8.61
78 129 MANSSENS GILLES SEH 58 1:58:46 07:01 8.54
79 131 MARCHAND YVES V2H 2 2:00:04 07:06 8.45
80 99 JACQUES ADRIEN SEH 59 2:00:08 07:06 8.44
81 123 LEONET MAXIME V1H 15 2:00:52 07:09 8.39
82 224 PEETERS NICOLAS SEH 60 2:00:58 07:09 8.39
83 237 ROSMAN JEAN-YVES SEH 61 2:01:19 07:11 8.36
84 78 FUSILLIER SIMON SEH 62 2:01:49 07:12 8.33
85 223 CORNIL THIERRY V1H 16 2:02:03 07:13 8.31
86 175 SANNIKOFF DENIS V1H 17 2:03:27 07:18 8.22
87 127 MAIRESSE PIERRE SEH 63 2:03:40 07:19 8.20
88 246 GERMANA GIANNI SEH 64 2:04:48 07:23 8.13
89 153 PHILIPPE BENJAMIN SEH 65 2:04:51 07:23 8.13
90 67 DUCAT JOËL SEH 66 2:05:02 07:24 8.11
91 219 DE BILDERLING GEORGES V2H 3 2:05:16 07:25 8.10
92 152 PETITJEAN THIERRY SEH 67 2:05:20 07:25 8.09
93 113 LAMBERT QUENTIN SEH 68 2:05:21 07:25 8.09
94 9 BEAUME STÉPHANE V2H 4 2:05:30 07:25 8.08
95 133 MARTIN PIERRE-LAURENT SEH 69 2:05:51 07:27 8.06
96 162 RAEVENS NICOLAS SEH 70 2:06:06 07:28 8.04
97 255 RENARD CHILDERIC SEH 71 2:06:12 07:28 8.04
98 29 CIGLIA LAURENTIN SEH 72 2:06:17 07:28 8.03
99 23 CARDINAEL SANDY SEH 73 2:06:23 07:29 8.03
100 165 RELEKOM STEPHANE V2H 5 2:06:29 07:29 8.02
101 101 JACQUET JEAN-FRANÇOIS V1H 18 2:06:48 07:30 8.00
102 75 FLORENT QUENTIN SEH 74 2:06:58 07:31 7.99
103 7 BALTHAZART QUENTIN V1H 19 2:06:59 07:31 7.99
104 160 POTTIEZ ÈVE SEF 2 2:07:09 07:31 7.98
105 150 PATRIS ANTOINE SEH 75 2:07:30 07:32 7.96
106 170 ROSOUX LIONEL V1H 20 2:08:20 07:35 7.90
107 204 WARNANT ALEXANDRE SEH 76 2:08:41 07:37 7.88
108 125 LORANT MANU V2H 6 2:08:58 07:38 7.87
109 124 LEUVREY DIDIER SEH 77 2:09:06 07:38 7.86
110 174 SALMON LUC SEH 78 2:09:26 07:39 7.84
111 94 GUSTIN JÉRÔME V1H 21 2:09:35 07:40 7.83
112 138 MERCIER DOMINIQUE V2H 7 2:10:18 07:42 7.79
113 110 LAINÉ JULIEN SEH 79 2:10:29 07:43 7.77
114 27 CHENOT CÉCILE SEF 3 2:10:43 07:44 7.76
115 42 DE VROEY PIERRE SEH 80 2:10:43 07:44 7.76
116 44 DI GREGORIO MARCELO SEH 81 2:10:53 07:44 7.75
117 178 KAZIMIROWSKI OLEK SEH 82 2:11:02 07:45 7.74
118 59 DESMEDT JÉRÔME SEH 83 2:11:28 07:47 7.72
119 205 WAVREILLE HERVÉ SEH 84 2:11:35 07:47 7.71
120 229 MINET GERALDINE SEF 4 2:12:12 07:49 7.67
121 45 DECAMP XAVIER SEH 85 2:12:47 07:51 7.64
122 103 THIRY JÉRÔME V1H 22 2:14:11 07:56 7.56
123 54 DENDAS PETER V2H 8 2:15:03 07:59 7.51
124 221 DEPRE DANIEL V2H 9 2:15:13 08:00 7.50
125 53 DEMOULIN BRIGITTE V2F 1 2:15:37 08:01 7.48
126 3 ANDRÉ PASCAL V2H 10 2:16:17 08:04 7.44
127 195 VAN DYCK LAURENT SEH 86 2:16:39 08:05 7.42
128 199 VANDEREYCKEN AXEL SEH 87 2:16:40 08:05 7.42
129 137 MELCHIOR BENJAMIN SEH 88 2:17:09 08:07 7.40
130 122 LÉONARD MATHIEU V1H 23 2:17:10 08:07 7.40
131 147 NAEGELS CHRISTINE V1F 1 2:18:18 08:11 7.34
132 208 XHIGNESSE KEVIN SEH 89 2:18:56 08:13 7.30
133 104 JONNIAUX GERY SEH 90 2:18:57 08:13 7.30
134 86 GILMAIRE EMMANUEL SEH 91 2:19:16 08:14 7.28
135 187 THOMAS JÉRÉMY SEH 92 2:19:17 08:14 7.28
136 180 SOUTMANS LAURÉ LINE SEF 5 2:19:59 08:17 7.25
137 251 WATHELET GILLES SEH 93 2:19:59 08:17 7.25
138 26 CHENOT AURÉLIE SEF 6 2:19:59 08:17 7.25
139 136 MAUDOUX PIERRE-YVES SEH 94 2:20:07 08:17 7.24
140 184 TAILLIEU NICOLAS SEH 95 2:20:36 08:19 7.22
141 250 CAMBIER GEOFFREY SEH 96 2:20:43 08:19 7.21
142 245 GERARD DAMIEN SEH 97 2:20:44 08:19 7.21
143 167 ROMAIN REGIS V1H 24 2:21:03 08:21 7.19
144 20 BRIDOUX SOPHIE SEF 7 2:21:39 08:23 7.16
145 231 PETRISOT SEBASTIEN SEH 98 2:21:45 08:23 7.16
146 158 POLET GAUTHIER SEH 99 2:22:28 08:26 7.12
147 157 POLET BRIEUC SEH 100 2:22:29 08:26 7.12
148 65 DROPSY OLIVIER SEH 101 2:22:29 08:26 7.12
149 200 VANDERSMISSEN EMERSON SEH 102 2:22:41 08:26 7.11
150 8 BAUDOIN PAULINE SEF 8 2:22:53 08:27 7.10
151 97 HUBAUT MARIE V1F 2 2:25:26 08:36 6.98
152 40 DE BAENST BAUDOUIN V1H 25 2:25:26 08:36 6.98
153 16 BOUCHAT NICOLAS SEH 103 2:25:28 08:36 6.97
154 201 VERDIN LAURENT V1H 26 2:25:35 08:37 6.97
155 202 WANSARD MARIE SEF 9 2:26:30 08:40 6.92
156 185 TAMINIAU ARNAUD SEH 104 2:26:59 08:42 6.90
157 254 BOUILLARD JULIEN SEH 105 2:27:28 08:43 6.88
158 126 MABILLE JULIE SEF 10 2:27:43 08:44 6.87
159 62 DEWEZ THOMAS SEH 106 2:27:45 08:44 6.87
160 61 DEWEZ ALEX V3H 1 2:27:46 08:44 6.87
161 203 WARICHET BEATE SEF 11 2:28:17 08:46 6.84
162 109 LACROIX LOGAN SEH 107 2:28:24 08:47 6.84
163 118 LECOCQ CÉDRIC SEH 108 2:29:49 08:52 6.77
164 193 VAN DER LINDEN PAUL V3H 2 2:30:16 08:53 6.75
165 171 SADZOT AGNÈS SEF 12 2:31:13 08:57 6.71
166 146 MORMAQUE NICOLAS V1H 27 2:31:13 08:57 6.71
167 196 VAN PACHTERBEKE ZGOUDI V2F 2 2:31:16 08:57 6.71
168 172 SADZOT CHARLINE SEF 13 2:31:19 08:57 6.70
169 90 GRAVY FRANCOIS SEH 109 2:31:19 08:57 6.70
170 258 SELVESTREL GAETAN SEH 110 2:31:21 08:57 6.70
171 188 THOMAS JOHN SEH 111 2:31:57 08:59 6.68
172 164 RAGUSA STEFANE SEH 112 2:32:07 09:00 6.67
173 36 CUVELIER JEROME SEH 113 2:32:08 09:00 6.67
174 25 CAVALLARO ANTONINO V1H 28 2:33:24 09:04 6.61
175 14 BOSERET SÉBASTIEN V1H 29 2:33:58 09:06 6.59
176 243 DELPERDANGE PATRICK V2H 11 2:34:29 09:08 6.57
177 71 FABRY BENOIT SEH 114 2:34:49 09:09 6.55
178 242 MORVAL OLIVIER SEH 115 2:34:50 09:09 6.55
179 93 GROYNNE EDOUARD SEH 116 2:34:50 09:09 6.55
180 18 BOULANGER NICOLAS V1H 30 2:35:32 09:12 6.52
181 121 LEMPEREUR VALÉRIE V1F 3 2:35:38 09:12 6.52
182 33 CORBIAUX BENJAMIN SEH 117 2:35:53 09:13 6.51
183 181 STALMANS PIERRE V1H 31 2:37:04 09:17 6.46
184 21 BYTTEBIER ALEXANDRA V1F 4 2:37:05 09:17 6.46
185 168 ROMAIN VALÉRIE V1F 5 2:37:34 09:19 6.44
186 111 LAMBERT ANTHONY V1H 32 2:37:46 09:20 6.43
187 39 DAVISTER CRISTELLE V1F 6 2:38:42 09:23 6.39
188 46 DECROIX OLIVIER V2H 12 2:38:43 09:23 6.39
189 149 PAQUES VINCENT SEH 118 2:40:33 09:30 6.32
190 257 LECLOUX GREGORY SEH 119 2:44:43 09:45 6.16
191 260 PIRON FREDERIC SEH 120 2:44:44 09:45 6.16
192 5 AOUST JEAN-PHILIPPE SEH 121 2:44:44 09:45 6.16
193 13 BORRET ALEXIS SEH 122 2:44:54 09:45 6.15
194 209 BOUDART VIRGINIE V1F 7 2:45:24 09:47 6.13
195 256 MICHEL VINCENT V1H 33 2:46:02 09:49 6.11
196 234 LAMBOT MICHAEL V1H 34 2:46:41 09:52 6.09
197 235 LAMBOT FRANK V1H 35 2:46:41 09:52 6.09
198 232 NOLS FREDERIC SEH 123 2:46:42 09:52 6.09
199 155 PIRE NICOLAS SEH 124 2:47:02 09:53 6.07
200 105 JORDANT BENOIT V2H 13 2:50:33 10:05 5.95
201 31 CLOSSON KEVIN SEH 125 2:52:08 10:11 5.89
202 34 CORBIAUX CHRISTOPHE SEH 126 2:58:27 10:33 5.68
203 163 RAFI DRISS SEH 127 2:59:54 10:38 5.64
204 186 THOMAS ANNE-CATHERINE SEF 14 2:59:54 10:38 5.64
205 130 MARCHAL ERIC V2H 14 3:03:04 10:50 5.54
206 253 BELLINKX YOFRI V1H 36 3:03:27 10:51 5.53
207 51 DELBOUILLE THIERRY V2H 15 3:04:00 10:53 5.51
208 96 HAUTIER CATHERINE SEF 15 3:04:35 10:55 5.50
209 24 CASTIN MICHAEL V1H 37 3:06:21 11:01 5.44